TimeEDT,TemperatureF,Dew PointF,Humidity,Sea Level PressureIn,VisibilityMPH,Wind Direction,Wind SpeedMPH,Gust SpeedMPH,PrecipitationIn,Events,Conditions,WindDirDegrees,DateUTC
12:07 AM,57.2,57.2,100,30.27,0.5,Calm,Calm,-,N/A,Fog,Fog,0,2013-08-18 04:07:00
12:26 AM,57.2,55.4,94,30.27,2.5,Calm,Calm,-,N/A,,Clear,0,2013-08-18 04:26:00
12:33 AM,57.2,57.2,100,30.27,10.0,Calm,Calm,-,N/A,,Clear,0,2013-08-18 04:33:00
12:42 AM,57.2,57.2,100,30.27,1.2,Calm,Calm,-,N/A,,Clear,0,2013-08-18 04:42:00
12:48 AM,55.4,55.4,100,30.27,0.2,Calm,Calm,-,N/A,Fog,Fog,0,2013-08-18 04:48:00
12:53 AM,57.0,57.0,100,30.27,0.5,Calm,Calm,-,N/A,Fog,Fog,0,2013-08-18 04:53:00
12:58 AM,57.2,57.2,100,30.27,2.0,Calm,Calm,-,N/A,,Clear,0,2013-08-18 04:58:00
1:02 AM,57.2,57.2,100,30.27,8.0,Calm,Calm,-,N/A,,Partly Cloudy,0,2013-08-18 05:02:00
1:11 AM,55.4,55.4,100,30.27,1.2,Calm,Calm,-,N/A,,Scattered Clouds,0,2013-08-18 05:11:00
1:13 AM,55.4,55.4,100,30.27,0.8,Calm,Calm,-,N/A,,Mist,0,2013-08-18 05:13:00
1:37 AM,57.2,57.2,100,30.27,1.2,Calm,Calm,-,N/A,,Partly Cloudy,0,2013-08-18 05:37:00
1:40 AM,55.4,55.4,100,30.27,3.0,Calm,Calm,-,N/A,,Partly Cloudy,0,2013-08-18 05:40:00
1:51 AM,55.4,55.4,100,30.27,1.8,Calm,Calm,-,N/A,,Partly Cloudy,0,2013-08-18 05:51:00
1:53 AM,55.9,55.0,97,30.27,1.0,Calm,Calm,-,N/A,,Mist,0,2013-08-18 05:53:00
1:55 AM,55.4,55.4,100,30.27,0.8,Calm,Calm,-,N/A,,Clear,0,2013-08-18 05:55:00
2:06 AM,55.4,55.4,100,30.27,0.2,Calm,Calm,-,N/A,Fog,Fog,0,2013-08-18 06:06:00
2:17 AM,55.4,55.4,100,30.27,0.5,Calm,Calm,-,N/A,Fog,Fog,0,2013-08-18 06:17:00
2:35 AM,55.4,55.4,100,30.27,0.5,Calm,Calm,-,N/A,Fog,Fog,0,2013-08-18 06:35:00
2:46 AM,55.4,55.4,100,30.27,2.5,Calm,Calm,-,N/A,,Mostly Cloudy,0,2013-08-18 06:46:00
2:53 AM,55.0,55.0,100,30.27,8.0,Calm,Calm,-,N/A,,Scattered Clouds,0,2013-08-18 06:53:00
3:12 AM,55.4,53.6,94,30.27,1.5,Calm,Calm,-,N/A,,Partly Cloudy,0,2013-08-18 07:12:00
3:21 AM,55.4,55.4,100,30.27,0.5,Calm,Calm,-,N/A,Fog,Fog,0,2013-08-18 07:21:00
3:36 AM,53.6,53.6,100,30.27,0.2,Calm,Calm,-,N/A,Fog,Fog,0,2013-08-18 07:36:00
3:48 AM,55.4,55.4,100,30.27,1.2,Calm,Calm,-,N/A,,Partly Cloudy,0,2013-08-18 07:48:00
3:51 AM,55.4,55.4,100,30.27,4.0,Calm,Calm,-,N/A,,Partly Cloudy,0,2013-08-18 07:51:00
3:53 AM,55.9,55.9,100,30.27,3.0,Calm,Calm,-,N/A,,Partly Cloudy,0,2013-08-18 07:53:00
4:00 AM,55.4,55.4,100,30.27,2.5,Calm,Calm,-,N/A,,Partly Cloudy,0,2013-08-18 08:00:00
4:09 AM,55.4,55.4,100,30.27,9.0,Calm,Calm,-,N/A,,Clear,0,2013-08-18 08:09:00
4:40 AM,55.4,55.4,100,30.27,1.8,Calm,Calm,-,N/A,,Clear,0,2013-08-18 08:40:00
4:49 AM,55.4,55.4,100,30.27,0.5,Calm,Calm,-,N/A,Fog,Fog,0,2013-08-18 08:49:00
4:53 AM,55.0,55.0,100,30.27,0.5,Calm,Calm,-,N/A,Fog,Fog,0,2013-08-18 08:53:00
5:16 AM,55.4,55.4,100,30.27,1.5,Calm,Calm,-,N/A,,Clear,0,2013-08-18 09:16:00
5:29 AM,55.4,55.4,100,30.27,0.5,Calm,Calm,-,N/A,Fog,Fog,0,2013-08-18 09:29:00
5:51 AM,55.4,55.4,100,30.27,2.5,Calm,Calm,-,N/A,,Clear,0,2013-08-18 09:51:00
5:53 AM,55.0,55.0,100,30.27,3.0,Calm,Calm,-,N/A,,Clear,0,2013-08-18 09:53:00
6:17 AM,55.4,53.6,94,30.27,0.8,Calm,Calm,-,N/A,,Clear,0,2013-08-18 10:17:00
6:28 AM,53.6,53.6,100,30.27,0.2,Calm,Calm,-,N/A,Fog,Fog,0,2013-08-18 10:28:00
6:41 AM,55.4,55.4,100,30.27,1.2,Calm,Calm,-,N/A,,Clear,0,2013-08-18 10:41:00
6:45 AM,55.4,55.4,100,30.27,3.0,Calm,Calm,-,N/A,,Clear,0,2013-08-18 10:45:00
6:53 AM,55.9,55.0,97,30.27,2.5,Calm,Calm,-,N/A,,Clear,0,2013-08-18 10:53:00
7:01 AM,55.4,55.4,100,30.27,1.5,Calm,Calm,-,N/A,,Clear,0,2013-08-18 11:01:00
7:06 AM,55.4,55.4,100,30.28,3.0,Calm,Calm,-,N/A,,Clear,0,2013-08-18 11:06:00
7:53 AM,60.1,57.9,93,30.28,7.0,Calm,Calm,-,N/A,,Clear,0,2013-08-18 11:53:00
8:53 AM,63.0,60.1,90,30.28,9.0,Calm,Calm,-,N/A,,Clear,0,2013-08-18 12:53:00
9:53 AM,64.9,62.1,90,30.29,9.0,Calm,Calm,-,N/A,,Clear,0,2013-08-18 13:53:00
10:53 AM,68.0,61.0,78,30.27,9.0,Calm,Calm,-,N/A,,Clear,0,2013-08-18 14:53:00
11:53 AM,69.1,60.1,73,30.26,8.0,Calm,Calm,-,N/A,,Clear,0,2013-08-18 15:53:00
12:53 PM,72.0,62.1,71,30.24,9.0,South,4.6,-,N/A,,Clear,180,2013-08-18 16:53:00
1:53 PM,73.0,62.1,68,30.22,10.0,South,4.6,-,N/A,,Clear,170,2013-08-18 17:53:00
2:53 PM,73.9,63.0,68,30.19,10.0,SSE,6.9,-,N/A,,Clear,150,2013-08-18 18:53:00
3:53 PM,73.9,63.0,68,30.17,10.0,South,8.1,-,N/A,,Clear,170,2013-08-18 19:53:00
4:53 PM,73.9,60.1,62,30.15,10.0,South,5.8,-,N/A,,Clear,190,2013-08-18 20:53:00
5:53 PM,73.0,64.9,76,30.14,10.0,South,4.6,-,N/A,,Clear,170,2013-08-18 21:53:00
6:53 PM,70.0,64.0,81,30.13,10.0,SSE,5.8,-,N/A,,Clear,160,2013-08-18 22:53:00
7:53 PM,66.9,63.0,87,30.13,9.0,Calm,Calm,-,N/A,,Clear,0,2013-08-18 23:53:00
8:53 PM,66.0,63.0,90,30.12,9.0,Calm,Calm,-,N/A,,Partly Cloudy,0,2013-08-19 00:53:00
9:16 PM,62.6,62.6,100,30.12,1.8,Calm,Calm,-,N/A,,Clear,0,2013-08-19 01:16:00
9:27 PM,62.6,62.6,100,30.11,3.0,Calm,Calm,-,N/A,,Clear,0,2013-08-19 01:27:00
9:38 PM,62.6,62.6,100,30.11,1.8,Calm,Calm,-,N/A,,Clear,0,2013-08-19 01:38:00
9:47 PM,62.6,60.8,94,30.11,3.0,Calm,Calm,-,N/A,,Clear,0,2013-08-19 01:47:00
9:53 PM,63.0,61.0,93,30.11,8.0,Calm,Calm,-,N/A,,Clear,0,2013-08-19 01:53:00
10:53 PM,61.0,60.1,97,30.11,8.0,Calm,Calm,-,N/A,,Clear,0,2013-08-19 02:53:00
11:19 PM,60.8,60.8,100,30.10,1.0,Calm,Calm,-,N/A,,Mist,0,2013-08-19 03:19:00
11:22 PM,60.8,60.8,100,30.10,0.2,Calm,Calm,-,N/A,Fog,Fog,0,2013-08-19 03:22:00
11:34 PM,62.6,60.8,94,30.10,1.0,SE,3.5,-,N/A,,Mist,140,2013-08-19 03:34:00
11:37 PM,60.8,60.8,100,30.10,2.0,SSE,3.5,-,N/A,,Partly Cloudy,160,2013-08-19 03:37:00
11:44 PM,59.0,59.0,100,30.10,6.0,SSE,3.5,-,N/A,,Partly Cloudy,160,2013-08-19 03:44:00
11:53 PM,59.0,59.0,100,30.10,0.8,Calm,Calm,-,N/A,,Mist,0,2013-08-19 03:53:00